Regional Weather Roundup
Issued by NWS Midland/Odessa, TX

Home | Current Version | Previous Version | Text Only | Print | Product List | Glossary On
Versions: 1 2 3 4 5 6 7 8 9 10 11 12 13 14 15 16 17 18 19 20 21 22 23 24 25 26 27 28 29 30 31 32 33 34 35 36 37 38 39 40 41 42 43 44 45 46 47 48 49 50
000
ASUS44 KMAF 180102
RWRMAF
MIDLAND AREA WEATHER ROUNDUP
NATIONAL WEATHER SERVICE MIDLAND TX
800 PM CDT THU APR 17 2014

...IN SOUTHWEST TEXAS AND SOUTHEAST NEW MEXICO...

CITY           SKY/WX    TMP DP  RH WIND       PRES   REMARKS
ALPINE         CLEAR     71  28  20 NE13      30.16R
ANDREWS        FAIR      67  42  41 E13G18    30.11R
ARTESIA        CLEAR     70  30  23 NE6       30.09S
BIG SPRING     CLEAR     64  46  51 NE20      30.14R
CARLSBAD       CLEAR     73  29  19 NE5       30.06S
DRYDEN           N/A     77  44  30 E9        30.01R
FORT STOCKTON  CLEAR     74  38  27 NE8       30.06R
GUAD PASS      CLEAR     61  29  29 NE25      30.15S
HOBBS          CLEAR     66  34  30 NE8       30.12R
MARFA          CLEAR     66  27  22 NE15      30.13R
MIDLAND AIRPK  CLEAR     69  45  42 NE20G26   30.10R
MIDLAND INTL   CLEAR     67  46  47 NE21      30.09R
ODESSA         CLEAR     68  43  40 NE22G28   30.10R
PECOS          CLEAR     75  35  22 N8        30.04R
PRESIDIO       FAIR      83  25  11 E21       29.95R
SEMINOLE       CLEAR     67  38  34 NE14      30.12R
SNYDER         CLEAR     57  49  74 N13       30.16R
WINK           CLEAR     75  34  22 NE9       30.04R
$$
...OTHER STATIONS IN TEXAS...

CITY           SKY/WX    TMP DP  RH WIND       PRES   REMARKS
ABILENE        CLOUDY    56  52  86 N12       30.14R
AMARILLO       MOCLDY    47  36  65 E8        30.22R
AUSTIN         DRIZZLE   62  61  96 N7        30.11R FOG
BROWNSVILLE    CLOUDY    70  68  93 NE10      29.99R
CORPUS CHRISTI CLOUDY    68  63  84 E20G25    30.03S
DALLAS FTW     CLOUDY    59  54  83 NE7       30.14S
DEL RIO        CLEAR     79  52  38 E9        29.98R
EL PASO        CLEAR     78  22  12 E10       30.01S
HOUSTON INT    CLOUDY    66  55  67 SE10      30.10R
LUBBOCK        MOCLDY    54  40  59 NE15      30.17R
SAN ANGELO     MOCLDY    64  54  69 E13       30.10R
SAN ANTONIO    LGT RAIN  63  62  97 E6        30.09R VSB 3/4
WACO           CLOUDY    61  59  93 N6        30.13R FOG
WICHITA FALLS  NOT AVBL
$$
...OTHER LOCATIONS IN NEW MEXICO...

CITY           SKY/WX    TMP DP  RH WIND       PRES   REMARKS
ALAMAGORDO     PTCLDY    75  18  11 SW7       30.04S
ALBUQUERQUE    PTCLDY    68  20  16 SE9       30.07F
CANNON AFB     CLEAR     58  33  38 NE10      30.17R
CLOVIS         CLEAR     55  34  44 E13       30.20R
HOLLOMAN AFB   PTCLDY    76  18  11 S6        30.02S
ROSWELL        CLEAR     70  29  21 NE6       30.09S
RUIDOSO        CLEAR     55  25  30 SE13      30.22R
SANTA FE       CLEAR     61  25  25 SE18      30.11S
TRUTH OR CONSE CLEAR     74  21  13 E7        30.02F
TUCUMCARI      CLEAR     57  33  40 E8        30.16S
$$



USA.gov is the U.S. government's official web portal to all federal, state and local government web resources and services.